AMX27LB MMMX-MMMY

Flight info

Callsign AMX27LB
Flight time 1h 8m
Altitude 36000
Route IKLAN2A IKLAN DCT ONGUB DCT RETOS RETOS1A
Aircraft B38M/M-SDE1FGHILORVWXY/HB1

Departure

Time 2026-04-22 01:30
Airport Mexico City Benito Juárez International Airport (MMMX)

Arrival

Time 2026-04-22 02:38
Airport Monterrey International Airport (MMMY)
Time Latitude Longitude Altitude Speed Heading
2026-04-22 01:11 19.43427 -99.08257 7305 ft 0 kts 329°
2026-04-22 01:21 19.43409 -99.08245 7287 ft 4 kts 323°
2026-04-22 01:21 19.43388 -99.08226 7305 ft 4 kts 312°
2026-04-22 01:21 19.43374 -99.08203 7305 ft 4 kts 282°
2026-04-22 01:22 19.43376 -99.08186 7305 ft 0 kts 239°
2026-04-22 01:26 19.43370 -99.08196 7305 ft 4 kts 239°
2026-04-22 01:27 19.43342 -99.08246 7305 ft 11 kts 239°
2026-04-22 01:27 19.43290 -99.08337 7305 ft 18 kts 239°
2026-04-22 01:27 19.43216 -99.08467 7305 ft 24 kts 239°
2026-04-22 01:27 19.43123 -99.08632 7305 ft 28 kts 239°
2026-04-22 01:28 19.43016 -99.08820 7305 ft 27 kts 239°
2026-04-22 01:28 19.42913 -99.08997 7305 ft 14 kts 221°
2026-04-22 01:28 19.42848 -99.09005 7305 ft 9 kts 155°
2026-04-22 01:28 19.42818 -99.08956 7305 ft 8 kts 85°
2026-04-22 01:29 19.42840 -99.08907 7305 ft 9 kts 59°
2026-04-22 01:29 19.42943 -99.08724 7304 ft 62 kts 59°
2026-04-22 01:29 19.43274 -99.08134 7306 ft 123 kts 59°
2026-04-22 01:29 19.43795 -99.07188 7322 ft 172 kts 61°
2026-04-22 01:30 19.44449 -99.06032 7835 ft 193 kts 60°
2026-04-22 01:30 19.45132 -99.04784 8979 ft 199 kts 61°
2026-04-22 01:30 19.45829 -99.03500 9606 ft 204 kts 60°
2026-04-22 01:30 19.46542 -99.02191 10119 ft 206 kts 59°
2026-04-22 01:31 19.47258 -99.00876 10896 ft 206 kts 58°
2026-04-22 01:31 19.47971 -98.99594 11794 ft 200 kts 58°
2026-04-22 01:31 19.48700 -98.98286 12389 ft 209 kts 57°
2026-04-22 01:31 19.49447 -98.96952 12964 ft 212 kts 58°
2026-04-22 01:32 19.50182 -98.95609 12817 ft 208 kts 56°
2026-04-22 01:32 19.50939 -98.94336 12809 ft 202 kts 56°
2026-04-22 01:32 19.51693 -98.93049 13090 ft 206 kts 54°
2026-04-22 01:32 19.52691 -98.92017 13721 ft 198 kts 25°
2026-04-22 01:33 19.53992 -98.91607 14301 ft 198 kts
2026-04-22 01:33 19.55364 -98.91590 14784 ft 201 kts 359°
2026-04-22 01:33 19.56768 -98.91582 15350 ft 201 kts 360°
2026-04-22 01:33 19.58181 -98.91559 15860 ft 205 kts
2026-04-22 01:34 19.59649 -98.91529 16199 ft 218 kts 359°
2026-04-22 01:34 19.61242 -98.91491 16419 ft 239 kts 360°
2026-04-22 01:34 19.62948 -98.91441 16676 ft 258 kts
2026-04-22 01:34 19.64813 -98.91382 16909 ft 279 kts
2026-04-22 01:35 19.66796 -98.91316 17331 ft 291 kts
2026-04-22 01:35 19.68888 -98.91246 17909 ft 310 kts
2026-04-22 01:35 19.71113 -98.91171 18170 ft 329 kts
2026-04-22 01:35 19.73477 -98.91092 18370 ft 349 kts
2026-04-22 01:36 19.75111 -98.91037 18477 ft 361 kts
2026-04-22 01:36 19.77692 -98.90951 18552 ft 380 kts
2026-04-22 01:36 19.80406 -98.90861 18565 ft 398 kts
2026-04-22 01:36 19.84174 -98.90738 18557 ft 419 kts
2026-04-22 01:37 19.86165 -98.90673 18550 ft 427 kts
2026-04-22 01:37 19.89144 -98.90580 18503 ft 439 kts
2026-04-22 01:37 19.92245 -98.90486 18803 ft 440 kts
2026-04-22 01:37 19.95277 -98.90400 18998 ft 444 kts
2026-04-22 01:38 19.98375 -98.90312 19292 ft 444 kts
2026-04-22 01:38 20.01488 -98.90225 19483 ft 448 kts 360°
2026-04-22 01:38 20.04601 -98.90139 19753 ft 448 kts
2026-04-22 01:38 20.07734 -98.90051 19954 ft 451 kts
2026-04-22 01:39 20.10881 -98.89964 20198 ft 453 kts
2026-04-22 01:39 20.14004 -98.89877 20483 ft 454 kts
2026-04-22 01:39 20.17182 -98.89789 20700 ft 457 kts 360°
2026-04-22 01:39 20.20360 -98.89701 21005 ft 458 kts
2026-04-22 01:40 20.23557 -98.89612 21212 ft 460 kts
2026-04-22 01:40 20.26758 -98.89524 21479 ft 461 kts
2026-04-22 01:40 20.29973 -98.89435 21716 ft 463 kts 360°
2026-04-22 01:40 20.33206 -98.89344 21930 ft 465 kts 360°
2026-04-22 01:41 20.36441 -98.89255 22174 ft 466 kts
2026-04-22 01:41 20.39698 -98.89165 22401 ft 467 kts 360°
2026-04-22 01:41 20.42952 -98.89100 22593 ft 469 kts 356°
2026-04-22 01:41 20.46194 -98.89416 22887 ft 467 kts 353°
2026-04-22 01:42 20.49445 -98.89792 22998 ft 471 kts 352°
2026-04-22 01:42 20.52660 -98.90176 23242 ft 472 kts 352°
2026-04-22 01:42 20.55926 -98.90568 23426 ft 474 kts 352°
2026-04-22 01:42 20.59211 -98.90964 23563 ft 475 kts 352°
2026-04-22 01:43 20.62495 -98.91358 23689 ft 476 kts 352°
2026-04-22 01:43 20.65799 -98.91757 23870 ft 477 kts 352°
2026-04-22 01:43 20.69100 -98.92155 24030 ft 478 kts 352°
2026-04-22 01:43 20.72416 -98.92554 24211 ft 479 kts 352°
2026-04-22 01:44 20.75738 -98.92955 24395 ft 480 kts 352°
2026-04-22 01:44 20.79067 -98.93357 24577 ft 481 kts 352°
2026-04-22 01:44 20.82368 -98.93755 24750 ft 482 kts 352°
2026-04-22 01:44 20.85710 -98.94159 24932 ft 483 kts 352°
2026-04-22 01:45 20.89056 -98.94562 25115 ft 484 kts 352°
2026-04-22 01:45 20.92416 -98.94969 25265 ft 485 kts 351°
2026-04-22 01:45 20.95781 -98.95376 25449 ft 487 kts 351°
2026-04-22 01:45 20.99151 -98.95783 25556 ft 488 kts 351°
2026-04-22 01:46 21.02481 -98.96186 25778 ft 487 kts 351°
2026-04-22 01:46 21.05848 -98.96593 25961 ft 487 kts 352°
2026-04-22 01:46 21.09218 -98.97002 26172 ft 486 kts 351°
2026-04-22 01:46 21.12587 -98.97410 26395 ft 485 kts 351°
2026-04-22 01:47 21.15945 -98.97818 26668 ft 485 kts 351°
2026-04-22 01:47 21.19294 -98.98224 26934 ft 484 kts 351°
2026-04-22 01:47 21.22598 -98.98624 27215 ft 483 kts 351°
2026-04-22 01:47 21.25942 -98.99031 27500 ft 483 kts 351°
2026-04-22 01:48 21.29285 -98.99437 27688 ft 483 kts 351°
2026-04-22 01:48 21.32633 -98.99844 28010 ft 481 kts 351°
2026-04-22 01:48 21.35964 -99.00249 28348 ft 480 kts 351°
2026-04-22 01:48 21.39240 -99.00647 28693 ft 479 kts 351°
2026-04-22 01:49 21.42564 -99.01052 29036 ft 478 kts 351°
2026-04-22 01:49 21.45872 -99.01454 29416 ft 477 kts 350°
2026-04-22 01:49 21.49165 -99.01855 29794 ft 476 kts 350°
2026-04-22 01:49 21.52449 -99.02255 30140 ft 475 kts 350°
2026-04-22 01:50 21.55738 -99.02656 30467 ft 474 kts 349°
2026-04-22 01:50 21.58968 -99.03051 30761 ft 474 kts 349°
2026-04-22 01:50 21.62264 -99.03452 31076 ft 473 kts 349°
2026-04-22 01:50 21.65546 -99.03853 31404 ft 473 kts 349°
2026-04-22 01:51 21.68818 -99.04253 31722 ft 472 kts 349°
2026-04-22 01:51 21.72044 -99.04647 32063 ft 472 kts 349°
2026-04-22 01:51 21.75309 -99.05046 32402 ft 471 kts 349°
2026-04-22 01:51 21.78567 -99.05445 32759 ft 470 kts 349°
2026-04-22 01:52 21.81826 -99.05843 33106 ft 469 kts 349°
2026-04-22 01:52 21.85073 -99.06241 33454 ft 469 kts 349°
2026-04-22 01:52 21.88310 -99.06637 33817 ft 468 kts 348°
2026-04-22 01:52 21.91506 -99.07029 34157 ft 466 kts 348°
2026-04-22 01:53 21.94731 -99.07424 34499 ft 465 kts 348°
2026-04-22 01:53 21.97958 -99.07820 34757 ft 466 kts 348°
2026-04-22 01:53 22.01188 -99.08216 35019 ft 466 kts 348°
2026-04-22 01:53 22.04393 -99.08610 35273 ft 467 kts 348°
2026-04-22 01:54 22.07625 -99.09006 35536 ft 467 kts 348°
2026-04-22 01:54 22.10862 -99.09404 35745 ft 469 kts 348°
2026-04-22 01:54 22.14117 -99.09804 35933 ft 470 kts 348°
2026-04-22 01:54 22.17374 -99.10204 35964 ft 470 kts 348°
2026-04-22 01:55 22.23876 -99.11005 35967 ft 471 kts 348°
2026-04-22 01:55 22.30362 -99.11803 35970 ft 472 kts 348°
2026-04-22 01:56 22.36899 -99.12609 35981 ft 472 kts 348°
2026-04-22 01:56 22.43442 -99.13417 35973 ft 472 kts 348°
2026-04-22 01:57 22.49980 -99.14224 35979 ft 472 kts 348°
2026-04-22 01:57 22.56475 -99.15027 35940 ft 471 kts 348°
2026-04-22 01:58 22.62994 -99.15835 36000 ft 473 kts 348°
2026-04-22 01:58 22.69520 -99.16643 35990 ft 472 kts 348°
2026-04-22 01:59 22.76049 -99.17452 35996 ft 472 kts 348°
2026-04-22 01:59 22.82576 -99.18262 36004 ft 472 kts 348°
2026-04-22 02:00 22.89117 -99.19075 36020 ft 472 kts 347°
2026-04-22 02:00 22.95607 -99.19882 36025 ft 473 kts 347°
2026-04-22 02:01 23.02160 -99.20698 36031 ft 472 kts 347°
2026-04-22 02:01 23.08704 -99.21514 36047 ft 475 kts 348°
2026-04-22 02:02 23.15229 -99.22326 36057 ft 473 kts 347°
2026-04-22 02:02 23.21781 -99.23144 36029 ft 472 kts 347°
2026-04-22 02:03 23.28323 -99.23965 36030 ft 472 kts 347°
2026-04-22 02:03 23.34796 -99.24768 36036 ft 471 kts 347°
2026-04-22 02:04 23.41333 -99.25592 36155 ft 474 kts 347°
2026-04-22 02:04 23.44617 -99.26002 36095 ft 474 kts 347°
2026-04-22 02:05 23.51124 -99.26818 36081 ft 473 kts 347°
2026-04-22 02:05 23.57691 -99.27644 36057 ft 474 kts 347°
2026-04-22 02:06 23.64256 -99.28467 36049 ft 474 kts 347°
2026-04-22 02:06 23.70809 -99.29291 36070 ft 474 kts 347°
2026-04-22 02:07 23.77320 -99.30112 36065 ft 472 kts 347°
2026-04-22 02:07 23.83861 -99.30936 36088 ft 474 kts 346°
2026-04-22 02:08 23.90430 -99.31762 36080 ft 474 kts 346°
2026-04-22 02:08 23.96995 -99.32593 36060 ft 474 kts 346°
2026-04-22 02:09 24.03557 -99.33422 36068 ft 474 kts 346°
2026-04-22 02:09 24.10114 -99.34001 36079 ft 477 kts 349°
2026-04-22 02:10 24.16758 -99.34498 36067 ft 478 kts 349°
2026-04-22 02:10 24.23402 -99.35007 36055 ft 478 kts 349°
2026-04-22 02:11 24.30012 -99.35516 36059 ft 478 kts 349°
2026-04-22 02:11 24.36648 -99.36026 36052 ft 478 kts 349°
2026-04-22 02:12 24.43284 -99.36538 36058 ft 478 kts 349°
2026-04-22 02:12 24.49911 -99.37049 36059 ft 477 kts 349°
2026-04-22 02:13 24.56513 -99.37559 36052 ft 477 kts 349°
2026-04-22 02:13 24.59792 -99.37812 35577 ft 470 kts 348°
2026-04-22 02:13 24.63068 -99.38065 34560 ft 477 kts 349°
2026-04-22 02:13 24.66404 -99.38323 33654 ft 480 kts 349°
2026-04-22 02:14 24.69719 -99.38580 32974 ft 476 kts 349°
2026-04-22 02:14 24.73028 -99.38837 32074 ft 478 kts 349°
2026-04-22 02:14 24.76363 -99.39095 31057 ft 481 kts 349°
2026-04-22 02:14 24.79695 -99.39353 30237 ft 480 kts 349°
2026-04-22 02:15 24.83034 -99.39612 29060 ft 483 kts 349°
2026-04-22 02:15 24.86380 -99.39871 28075 ft 481 kts 350°
2026-04-22 02:15 24.89730 -99.40131 27044 ft 482 kts 350°
2026-04-22 02:15 24.93063 -99.40390 26291 ft 476 kts 350°
2026-04-22 02:16 24.96316 -99.40643 25569 ft 471 kts 351°
2026-04-22 02:16 24.99572 -99.40896 24836 ft 466 kts 351°
2026-04-22 02:16 25.02797 -99.41147 24122 ft 462 kts 351°
2026-04-22 02:16 25.05983 -99.41395 23707 ft 452 kts 351°
2026-04-22 02:17 25.09074 -99.41636 23367 ft 438 kts 351°
2026-04-22 02:17 25.12069 -99.41869 23111 ft 424 kts 351°
2026-04-22 02:17 25.14969 -99.42096 22881 ft 411 kts 351°
2026-04-22 02:17 25.17784 -99.42316 22667 ft 399 kts 350°
2026-04-22 02:18 25.20458 -99.42657 22300 ft 386 kts 340°
2026-04-22 02:18 25.22913 -99.43734 21744 ft 377 kts 330°
2026-04-22 02:18 25.25295 -99.44933 21288 ft 374 kts 331°
2026-04-22 02:18 25.27647 -99.46124 20839 ft 371 kts 330°
2026-04-22 02:19 25.29984 -99.47321 20390 ft 368 kts 330°
2026-04-22 02:19 25.32298 -99.48515 19950 ft 365 kts 330°
2026-04-22 02:19 25.34551 -99.49767 19572 ft 358 kts 323°
2026-04-22 02:19 25.36508 -99.51355 19305 ft 354 kts 318°
2026-04-22 02:20 25.38487 -99.53027 19025 ft 355 kts 319°
2026-04-22 02:20 25.40439 -99.54658 18790 ft 347 kts 319°
2026-04-22 02:20 25.42347 -99.56245 18608 ft 338 kts 319°
2026-04-22 02:20 25.44204 -99.57785 18442 ft 329 kts 319°
2026-04-22 02:21 25.46010 -99.59282 18271 ft 320 kts 319°
2026-04-22 02:21 25.47769 -99.60741 18044 ft 312 kts 319°
2026-04-22 02:21 25.49501 -99.62177 17651 ft 310 kts 319°
2026-04-22 02:21 25.51205 -99.63589 17285 ft 308 kts 319°
2026-04-22 02:22 25.52919 -99.65011 16897 ft 307 kts 319°
2026-04-22 02:22 25.54623 -99.66425 16534 ft 305 kts 319°
2026-04-22 02:22 25.56318 -99.67831 16167 ft 303 kts 319°
2026-04-22 02:22 25.57998 -99.69226 15824 ft 301 kts 319°
2026-04-22 02:23 25.59678 -99.70620 15461 ft 300 kts 319°
2026-04-22 02:23 25.61338 -99.72000 15114 ft 298 kts 319°
2026-04-22 02:23 25.62994 -99.73376 14764 ft 296 kts 319°
2026-04-22 02:23 25.64610 -99.74720 14507 ft 292 kts 319°
2026-04-22 02:24 25.66230 -99.76067 14157 ft 291 kts 319°
2026-04-22 02:24 25.67853 -99.77417 14017 ft 288 kts 319°
2026-04-22 02:24 25.69465 -99.78759 13986 ft 290 kts 319°
2026-04-22 02:24 25.71057 -99.80085 13984 ft 290 kts 319°
2026-04-22 02:25 25.72672 -99.81430 13985 ft 290 kts 319°
2026-04-22 02:25 25.74290 -99.82778 13985 ft 290 kts 319°
2026-04-22 02:25 25.75642 -99.83905 13989 ft 291 kts 319°
2026-04-22 02:25 25.77212 -99.85305 13897 ft 286 kts 311°
2026-04-22 02:26 25.78048 -99.86420 13611 ft 284 kts 301°
2026-04-22 02:26 25.79291 -99.88952 13192 ft 278 kts 297°
2026-04-22 02:26 25.80213 -99.90828 12843 ft 277 kts 297°
2026-04-22 02:26 25.80845 -99.92098 12583 ft 277 kts 297°
2026-04-22 02:27 25.82088 -99.94573 12091 ft 277 kts 298°
2026-04-22 02:27 25.82714 -99.95812 11853 ft 277 kts 298°
2026-04-22 02:27 25.83670 -99.97699 11485 ft 277 kts 298°
2026-04-22 02:27 25.84602 -99.99536 11133 ft 277 kts 298°
2026-04-22 02:28 25.85547 -100.01396 10780 ft 277 kts 298°
2026-04-22 02:28 25.86495 -100.03264 10419 ft 277 kts 298°
2026-04-22 02:28 25.87440 -100.05125 10084 ft 277 kts 299°
2026-04-22 02:28 25.88386 -100.06990 9710 ft 277 kts 299°
2026-04-22 02:29 25.89333 -100.08855 9329 ft 277 kts 299°
2026-04-22 02:29 25.90281 -100.10724 8960 ft 278 kts 299°
2026-04-22 02:29 25.91227 -100.12591 8665 ft 275 kts 299°
2026-04-22 02:29 25.92143 -100.14398 8516 ft 267 kts 299°
2026-04-22 02:30 25.93036 -100.16163 8356 ft 258 kts 299°
2026-04-22 02:30 25.93914 -100.17896 8028 ft 256 kts 299°
2026-04-22 02:30 25.94789 -100.19625 7661 ft 256 kts 299°
2026-04-22 02:30 25.95660 -100.21346 7347 ft 255 kts 301°
2026-04-22 02:31 25.96522 -100.23049 7114 ft 250 kts 300°
2026-04-22 02:31 25.97079 -100.24811 7066 ft 237 kts 273°
2026-04-22 02:31 25.96791 -100.26533 7038 ft 220 kts 242°
2026-04-22 02:31 25.95861 -100.27811 6980 ft 211 kts 215°
2026-04-22 02:32 25.94672 -100.28744 6787 ft 208 kts 211°
2026-04-22 02:32 25.93475 -100.29612 6462 ft 209 kts 209°
2026-04-22 02:32 25.92257 -100.30469 6114 ft 205 kts 208°
2026-04-22 02:32 25.90994 -100.31157 5654 ft 200 kts 185°
2026-04-22 02:33 25.89657 -100.30980 5163 ft 191 kts 150°
2026-04-22 02:33 25.88691 -100.30050 4836 ft 181 kts 124°
2026-04-22 02:33 25.88003 -100.28921 4628 ft 172 kts 123°
2026-04-22 02:33 25.87358 -100.27832 4457 ft 166 kts 122°
2026-04-22 02:34 25.86741 -100.26764 4314 ft 163 kts 122°
2026-04-22 02:34 25.86138 -100.25710 4144 ft 162 kts 122°
2026-04-22 02:34 25.85540 -100.24644 3970 ft 162 kts 121°
2026-04-22 02:34 25.84959 -100.23588 3792 ft 160 kts 120°
2026-04-22 02:35 25.84397 -100.22539 3588 ft 156 kts 120°
2026-04-22 02:35 25.83843 -100.21534 3603 ft 157 kts 122°
2026-04-22 02:35 25.83216 -100.20424 3577 ft 176 kts 121°
2026-04-22 02:35 25.82614 -100.19271 3259 ft 165 kts 121°
2026-04-22 02:36 25.82042 -100.18239 2992 ft 150 kts 123°
2026-04-22 02:36 25.81483 -100.17251 2639 ft 149 kts 122°
2026-04-22 02:36 25.80940 -100.16292 2396 ft 145 kts 122°
2026-04-22 02:36 25.80392 -100.15340 2126 ft 146 kts 121°
2026-04-22 02:37 25.79876 -100.14389 1915 ft 145 kts 120°
2026-04-22 02:37 25.79356 -100.13432 1736 ft 145 kts 121°
2026-04-22 02:37 25.78835 -100.12470 1553 ft 144 kts 120°
2026-04-22 02:37 25.78320 -100.11525 1357 ft 143 kts 121°
2026-04-22 02:38 25.77843 -100.10645 1333 ft 113 kts 122°
2026-04-22 02:38 25.77503 -100.10055 1333 ft 74 kts 123°
2026-04-22 02:38 25.77293 -100.09699 1337 ft 16 kts 149°
2026-04-22 02:38 25.77246 -100.09698 1333 ft 5 kts 209°
2026-04-22 02:39 25.77211 -100.09722 1336 ft 7 kts 212°
2026-04-22 02:39 25.77162 -100.09758 1333 ft 10 kts 218°
2026-04-22 02:39 25.77143 -100.09799 1333 ft 1 kts 276°
2026-04-22 02:39 25.77164 -100.09846 1335 ft 14 kts 301°
2026-04-22 02:40 25.77224 -100.09956 1333 ft 19 kts 301°
2026-04-22 02:40 25.77299 -100.10087 1333 ft 21 kts 301°
2026-04-22 02:40 25.77380 -100.10236 1333 ft 24 kts 301°
2026-04-22 02:40 25.77468 -100.10399 1333 ft 26 kts 301°
2026-04-22 02:41 25.77522 -100.10497 1333 ft 0 kts 301°
2026-04-22 02:41 25.77530 -100.10513 1333 ft 9 kts 301°
2026-04-22 02:42 25.77594 -100.10627 1333 ft 26 kts 302°
2026-04-22 02:42 25.77715 -100.10845 1333 ft 33 kts 301°
2026-04-22 02:42 25.77801 -100.11006 1333 ft 13 kts 301°
2026-04-22 02:42 25.77822 -100.11047 1333 ft 4 kts 296°
2026-04-22 02:43 25.77821 -100.11083 1333 ft 6 kts 244°
2026-04-22 02:43 25.77785 -100.11116 1333 ft 8 kts 210°
2026-04-22 02:43 25.77736 -100.11131 1333 ft 0 kts 177°
2026-04-22 02:43 25.77732 -100.11127 1335 ft 1 kts 140°
2026-04-22 02:44 25.77718 -100.11112 1333 ft 4 kts 131°
2026-04-22 02:44 25.77696 -100.11076 1333 ft 7 kts 120°
2026-04-22 02:44 25.77666 -100.11031 1333 ft 5 kts 153°
2026-04-22 02:44 25.77661 -100.11031 1333 ft 1 kts 178°
2026-04-22 02:45 25.77660 -100.11031 1333 ft 0 kts 183°
2026-04-22 02:45 25.77659 -100.11031 1333 ft 0 kts 185°
2026-04-22 02:45 25.77657 -100.11031 1333 ft 1 kts 175°
2026-04-22 02:45 25.77643 -100.11020 1333 ft 0 kts 135°
2026-04-22 02:46 25.77635 -100.11009 1333 ft 5 kts 130°
2026-04-22 02:46 25.77621 -100.10994 1333 ft 0 kts 154°
2026-04-22 02:46 25.77618 -100.10996 1333 ft 0 kts 198°
2026-04-22 02:46 25.77616 -100.11000 1333 ft 1 kts 242°
2026-04-22 02:47 25.77608 -100.11025 1333 ft 5 kts 248°
2026-04-22 02:47 25.77594 -100.11061 1333 ft 5 kts 246°
2026-04-22 02:47 25.77588 -100.11076 1333 ft 0 kts 246°